DAH1073 DAAG-DAOO

Flight info

Callsign DAH1073
Flight time 0h 37m
Altitude 35000
Route CHE1D DAHRA UA411 MOS
Aircraft A320/M-SDE3FGHIRWY/LB1

Departure

Time 2026-04-29 02:02
Airport Houari Boumediene Airport (DAAG)

Arrival

Time 2026-04-29 02:40
Airport Oran Es-Sénia (Ahmed Ben Bella) International Airport (DAOO)
Time Latitude Longitude Altitude Speed Heading
2026-04-29 01:32 36.69715 3.20282 70 ft 0 kts 272°
2026-04-29 01:48 36.69715 3.20284 70 ft 2 kts 272°
2026-04-29 01:49 36.69714 3.20316 70 ft 4 kts 271°
2026-04-29 01:49 36.69713 3.20346 60 ft 4 kts 259°
2026-04-29 01:49 36.69723 3.20365 65 ft 4 kts 180°
2026-04-29 01:49 36.69749 3.20360 70 ft 4 kts 167°
2026-04-29 01:50 36.69757 3.20357 70 ft 0 kts 172°
2026-04-29 01:53 36.69756 3.20358 70 ft 2 kts 172°
2026-04-29 01:53 36.69716 3.20367 65 ft 6 kts 169°
2026-04-29 01:53 36.69678 3.20370 63 ft 5 kts 178°
2026-04-29 01:54 36.69634 3.20370 70 ft 7 kts 181°
2026-04-29 01:54 36.69584 3.20368 66 ft 9 kts 182°
2026-04-29 01:54 36.69527 3.20366 70 ft 7 kts 182°
2026-04-29 01:54 36.69469 3.20355 70 ft 9 kts 207°
2026-04-29 01:55 36.69428 3.20304 70 ft 8 kts 221°
2026-04-29 01:55 36.69383 3.20290 67 ft 7 kts 183°
2026-04-29 01:55 36.69335 3.20285 70 ft 7 kts 196°
2026-04-29 01:55 36.69300 3.20217 64 ft 11 kts 263°
2026-04-29 01:56 36.69302 3.20118 66 ft 13 kts 272°
2026-04-29 01:56 36.69305 3.19986 70 ft 17 kts 271°
2026-04-29 01:56 36.69308 3.19834 65 ft 18 kts 271°
2026-04-29 01:56 36.69313 3.19666 67 ft 20 kts 272°
2026-04-29 01:57 36.69317 3.19483 70 ft 22 kts 272°
2026-04-29 01:57 36.69322 3.19287 69 ft 23 kts 271°
2026-04-29 01:57 36.69327 3.19079 71 ft 25 kts 271°
2026-04-29 01:57 36.69331 3.18861 67 ft 26 kts 271°
2026-04-29 01:58 36.69337 3.18634 71 ft 27 kts 271°
2026-04-29 01:58 36.69343 3.18397 71 ft 28 kts 272°
2026-04-29 01:58 36.69349 3.18153 63 ft 29 kts 271°
2026-04-29 01:58 36.69355 3.17901 71 ft 29 kts 272°
2026-04-29 01:59 36.69361 3.17649 66 ft 30 kts 271°
2026-04-29 01:59 36.69367 3.17390 71 ft 30 kts 272°
2026-04-29 01:59 36.69372 3.17171 65 ft 16 kts 268°
2026-04-29 01:59 36.69318 3.17101 66 ft 8 kts 190°
2026-04-29 02:00 36.69284 3.17100 67 ft 1 kts 178°
2026-04-29 02:00 36.69283 3.17100 76 ft 0 kts 178°
2026-04-29 02:00 36.69266 3.17100 78 ft 2 kts 179°
2026-04-29 02:00 36.69261 3.17100 71 ft 3 kts 178°
2026-04-29 02:01 36.69232 3.17107 85 ft 7 kts 159°
2026-04-29 02:01 36.69203 3.17186 84 ft 11 kts 92°
2026-04-29 02:01 36.69199 3.17337 79 ft 40 kts 91°
2026-04-29 02:01 36.69182 3.18018 73 ft 113 kts 91°
2026-04-29 02:02 36.69153 3.19229 78 ft 165 kts 92°
2026-04-29 02:02 36.69096 3.20734 539 ft 176 kts 94°
2026-04-29 02:02 36.69035 3.22274 1202 ft 181 kts 92°
2026-04-29 02:02 36.69210 3.23851 1776 ft 191 kts 70°
2026-04-29 02:03 36.69987 3.25294 2099 ft 215 kts 37°
2026-04-29 02:03 36.71421 3.26032 2406 ft 238 kts
2026-04-29 02:03 36.73152 3.26242 2846 ft 262 kts
2026-04-29 02:03 36.75026 3.26352 3559 ft 275 kts
2026-04-29 02:04 36.76957 3.26440 4439 ft 281 kts
2026-04-29 02:04 36.78935 3.26537 5293 ft 288 kts
2026-04-29 02:04 36.80963 3.26657 6143 ft 295 kts
2026-04-29 02:04 36.83015 3.26445 6915 ft 300 kts 341°
2026-04-29 02:05 36.84849 3.25246 7732 ft 298 kts 316°
2026-04-29 02:05 36.86153 3.23269 8592 ft 292 kts 293°
2026-04-29 02:05 36.86738 3.20876 9380 ft 287 kts 271°
2026-04-29 02:05 36.86554 3.18420 10168 ft 286 kts 251°
2026-04-29 02:06 36.85889 3.15973 10489 ft 310 kts 248°
2026-04-29 02:06 36.85117 3.13318 10690 ft 340 kts 248°
2026-04-29 02:06 36.84266 3.10476 11086 ft 355 kts 248°
2026-04-29 02:06 36.83406 3.07558 11799 ft 360 kts 248°
2026-04-29 02:07 36.82548 3.04613 12566 ft 363 kts 249°
2026-04-29 02:07 36.81700 3.01683 13320 ft 365 kts 249°
2026-04-29 02:07 36.80832 2.98693 13985 ft 368 kts 249°
2026-04-29 02:07 36.79957 2.95673 14636 ft 372 kts 249°
2026-04-29 02:08 36.79076 2.92622 15274 ft 375 kts 249°
2026-04-29 02:08 36.78183 2.89545 15877 ft 379 kts 249°
2026-04-29 02:08 36.77278 2.86445 16469 ft 382 kts 249°
2026-04-29 02:08 36.76366 2.83322 17055 ft 385 kts 249°
2026-04-29 02:09 36.75448 2.80175 17630 ft 389 kts 249°
2026-04-29 02:09 36.74519 2.76990 18231 ft 391 kts 249°
2026-04-29 02:09 36.73585 2.73795 18776 ft 394 kts 249°
2026-04-29 02:09 36.72641 2.70573 19291 ft 397 kts 249°
2026-04-29 02:10 36.71689 2.67332 19805 ft 400 kts 249°
2026-04-29 02:10 36.70731 2.64070 20299 ft 403 kts 249°
2026-04-29 02:10 36.69763 2.60783 20781 ft 405 kts 249°
2026-04-29 02:10 36.68791 2.57475 21263 ft 408 kts 249°
2026-04-29 02:11 36.67812 2.54149 21725 ft 410 kts 249°
2026-04-29 02:11 36.66828 2.50804 22172 ft 413 kts 248°
2026-04-29 02:11 36.65838 2.47442 22608 ft 415 kts 248°
2026-04-29 02:11 36.64840 2.44064 23012 ft 417 kts 248°
2026-04-29 02:12 36.63833 2.40665 23414 ft 419 kts 248°
2026-04-29 02:12 36.62820 2.37252 23820 ft 421 kts 248°
2026-04-29 02:12 36.61802 2.33826 24211 ft 423 kts 248°
2026-04-29 02:12 36.60779 2.30386 24585 ft 425 kts 248°
2026-04-29 02:13 36.59752 2.26932 24980 ft 427 kts 248°
2026-04-29 02:13 36.58720 2.23463 25349 ft 428 kts 248°
2026-04-29 02:13 36.57685 2.19987 25724 ft 429 kts 248°
2026-04-29 02:13 36.56645 2.16502 25862 ft 431 kts 248°
2026-04-29 02:14 36.55592 2.12988 25888 ft 435 kts 248°
2026-04-29 02:14 36.54535 2.09461 25892 ft 435 kts 248°
2026-04-29 02:14 36.53490 2.05980 25897 ft 435 kts 248°
2026-04-29 02:14 36.52430 2.02453 25895 ft 435 kts 248°
2026-04-29 02:15 36.51359 1.98882 25895 ft 435 kts 248°
2026-04-29 02:15 36.50314 1.95404 25896 ft 435 kts 248°
2026-04-29 02:15 36.49253 1.91887 25905 ft 435 kts 248°
2026-04-29 02:15 36.48191 1.88367 25901 ft 435 kts 248°
2026-04-29 02:16 36.47131 1.84848 25902 ft 435 kts 248°
2026-04-29 02:16 36.46070 1.81332 25901 ft 435 kts 248°
2026-04-29 02:16 36.45006 1.77818 25903 ft 435 kts 248°
2026-04-29 02:16 36.43940 1.74310 25907 ft 434 kts 247°
2026-04-29 02:17 36.42874 1.70803 25906 ft 434 kts 248°
2026-04-29 02:17 36.41808 1.67301 25906 ft 434 kts 248°
2026-04-29 02:17 36.40740 1.63799 25913 ft 434 kts 248°
2026-04-29 02:17 36.39673 1.60295 25907 ft 434 kts 248°
2026-04-29 02:18 36.38605 1.56791 25899 ft 434 kts 248°
2026-04-29 02:18 36.37536 1.53294 25903 ft 434 kts 247°
2026-04-29 02:18 36.36467 1.49798 25902 ft 433 kts 247°
2026-04-29 02:18 36.35370 1.46329 25889 ft 431 kts 246°
2026-04-29 02:19 36.34226 1.42886 25893 ft 432 kts 246°
2026-04-29 02:19 36.33055 1.39452 25893 ft 432 kts 245°
2026-04-29 02:19 36.31875 1.36018 25902 ft 433 kts 245°
2026-04-29 02:19 36.30694 1.32584 25902 ft 433 kts 245°
2026-04-29 02:20 36.29520 1.29144 25899 ft 434 kts 246°
2026-04-29 02:20 36.28352 1.25694 25902 ft 434 kts 246°
2026-04-29 02:20 36.27203 1.22282 25910 ft 435 kts 246°
2026-04-29 02:20 36.26025 1.18778 25909 ft 435 kts 246°
2026-04-29 02:21 36.24862 1.15324 25905 ft 435 kts 246°
2026-04-29 02:21 36.23712 1.11921 25902 ft 434 kts 246°
2026-04-29 02:21 36.22544 1.08470 25905 ft 434 kts 246°
2026-04-29 02:21 36.21372 1.05023 25892 ft 434 kts 246°
2026-04-29 02:22 36.20200 1.01584 25905 ft 434 kts 246°
2026-04-29 02:22 36.19025 0.98142 25910 ft 434 kts 246°
2026-04-29 02:22 36.17853 0.94701 25902 ft 434 kts 246°
2026-04-29 02:22 36.16680 0.91256 25903 ft 434 kts 246°
2026-04-29 02:23 36.15505 0.87813 25829 ft 435 kts 246°
2026-04-29 02:23 36.14330 0.84369 25572 ft 434 kts 246°
2026-04-29 02:23 36.13154 0.80925 25294 ft 434 kts 246°
2026-04-29 02:23 36.11985 0.77504 24464 ft 430 kts 246°
2026-04-29 02:24 36.10821 0.74106 23391 ft 430 kts 246°
2026-04-29 02:24 36.09653 0.70707 22436 ft 428 kts 246°
2026-04-29 02:24 36.08494 0.67335 21621 ft 424 kts 246°
2026-04-29 02:25 36.06202 0.60671 19996 ft 418 kts 246°
2026-04-29 02:25 36.05072 0.57384 19202 ft 414 kts 246°
2026-04-29 02:25 36.03948 0.54125 18427 ft 411 kts 246°
2026-04-29 02:25 36.02832 0.50894 17674 ft 407 kts 246°
2026-04-29 02:26 36.01721 0.47688 16933 ft 404 kts 246°
2026-04-29 02:26 36.00620 0.44517 16215 ft 400 kts 246°
2026-04-29 02:26 35.99532 0.41379 15525 ft 396 kts 246°
2026-04-29 02:26 35.98457 0.38276 14853 ft 390 kts 246°
2026-04-29 02:27 35.97407 0.35254 14221 ft 386 kts 246°
2026-04-29 02:27 35.96354 0.32239 13590 ft 380 kts 246°
2026-04-29 02:27 35.95315 0.29265 12978 ft 374 kts 246°
2026-04-29 02:27 35.94297 0.26335 12375 ft 370 kts 246°
2026-04-29 02:28 35.93292 0.23442 11774 ft 365 kts 246°
2026-04-29 02:28 35.92296 0.20579 11298 ft 358 kts 246°
2026-04-29 02:28 35.91337 0.17827 11167 ft 341 kts 245°
2026-04-29 02:28 35.90421 0.15206 11040 ft 325 kts 245°
2026-04-29 02:29 35.89543 0.12711 10906 ft 311 kts 245°
2026-04-29 02:29 35.88673 0.10327 10790 ft 298 kts 244°
2026-04-29 02:29 35.87822 0.08045 10656 ft 287 kts 243°
2026-04-29 02:29 35.86991 0.05842 10450 ft 280 kts 243°
2026-04-29 02:30 35.86171 0.03671 10390 ft 280 kts 243°
2026-04-29 02:30 35.85357 0.01498 10319 ft 279 kts 243°
2026-04-29 02:30 35.84543 -0.00677 10211 ft 280 kts 243°
2026-04-29 02:30 35.83727 -0.02860 10094 ft 281 kts 244°
2026-04-29 02:31 35.82904 -0.05061 9962 ft 285 kts 245°
2026-04-29 02:31 35.82073 -0.07291 9617 ft 290 kts 245°
2026-04-29 02:31 35.81225 -0.09566 9156 ft 291 kts 245°
2026-04-29 02:31 35.80381 -0.11823 8715 ft 291 kts 245°
2026-04-29 02:32 35.79533 -0.14086 8278 ft 291 kts 245°
2026-04-29 02:32 35.78684 -0.16346 7865 ft 290 kts 245°
2026-04-29 02:32 35.77840 -0.18595 7461 ft 289 kts 245°
2026-04-29 02:32 35.77001 -0.20835 7057 ft 287 kts 245°
2026-04-29 02:33 35.76177 -0.23033 6870 ft 277 kts 245°
2026-04-29 02:33 35.75328 -0.25136 6407 ft 274 kts 236°
2026-04-29 02:33 35.74300 -0.27037 6006 ft 260 kts 242°
2026-04-29 02:33 35.73566 -0.29014 5659 ft 248 kts 248°
2026-04-29 02:34 35.72940 -0.30935 5344 ft 237 kts 248°
2026-04-29 02:34 35.72331 -0.32768 5030 ft 226 kts 248°
2026-04-29 02:34 35.71737 -0.34530 4746 ft 221 kts 248°
2026-04-29 02:34 35.71147 -0.36275 4455 ft 221 kts 248°
2026-04-29 02:35 35.70556 -0.38026 4155 ft 222 kts 248°
2026-04-29 02:35 35.69962 -0.39783 3868 ft 223 kts 248°
2026-04-29 02:35 35.69367 -0.41540 3567 ft 223 kts 248°
2026-04-29 02:35 35.68775 -0.43289 3287 ft 217 kts 248°
2026-04-29 02:36 35.68400 -0.44395 3092 ft 206 kts 248°
2026-04-29 02:36 35.67701 -0.46456 2744 ft 188 kts 248°
2026-04-29 02:36 35.67221 -0.47871 2491 ft 172 kts 247°
2026-04-29 02:36 35.66788 -0.49147 2284 ft 153 kts 246°
2026-04-29 02:37 35.66391 -0.50317 2084 ft 145 kts 246°
2026-04-29 02:37 35.66007 -0.51451 1895 ft 143 kts 246°
2026-04-29 02:37 35.65749 -0.52212 1768 ft 142 kts 246°
2026-04-29 02:37 35.65367 -0.53335 1581 ft 142 kts 248°
2026-04-29 02:38 35.64986 -0.54452 1395 ft 141 kts 248°
2026-04-29 02:38 35.64611 -0.55566 1194 ft 141 kts 249°
2026-04-29 02:38 35.64241 -0.56677 1015 ft 140 kts 248°
2026-04-29 02:38 35.63863 -0.57782 832 ft 140 kts 248°
2026-04-29 02:39 35.63496 -0.58888 643 ft 139 kts 248°
2026-04-29 02:39 35.63114 -0.59981 455 ft 139 kts 248°
2026-04-29 02:39 35.62745 -0.61056 315 ft 137 kts 247°
2026-04-29 02:39 35.62419 -0.62014 299 ft 99 kts 247°
2026-04-29 02:40 35.62211 -0.62621 301 ft 56 kts 247°
2026-04-29 02:40 35.62118 -0.62886 301 ft 23 kts 244°
2026-04-29 02:40 35.62062 -0.62983 300 ft 14 kts 211°
2026-04-29 02:40 35.61977 -0.62978 301 ft 11 kts 158°
2026-04-29 02:41 35.61908 -0.62944 300 ft 10 kts 158°
2026-04-29 02:41 35.61845 -0.62912 300 ft 10 kts 158°
2026-04-29 02:41 35.61748 -0.62864 302 ft 20 kts 158°
2026-04-29 02:41 35.61641 -0.62782 303 ft 18 kts 130°
2026-04-29 02:42 35.61620 -0.62631 301 ft 19 kts 72°
2026-04-29 02:42 35.61674 -0.62471 302 ft 21 kts 67°
2026-04-29 02:42 35.61734 -0.62298 304 ft 23 kts 67°
2026-04-29 02:42 35.61800 -0.62109 302 ft 25 kts 67°
2026-04-29 02:43 35.61869 -0.61907 303 ft 26 kts 67°
2026-04-29 02:43 35.61942 -0.61694 303 ft 28 kts 67°
2026-04-29 02:43 35.62003 -0.61516 303 ft 16 kts 67°
2026-04-29 02:43 35.62015 -0.61401 306 ft 13 kts 118°
2026-04-29 02:44 35.61975 -0.61315 303 ft 11 kts 88°
2026-04-29 02:44 35.61998 -0.61234 303 ft 9 kts 75°
2026-04-29 02:44 35.61974 -0.61174 303 ft 8 kts 142°
2026-04-29 02:44 35.61935 -0.61137 303 ft 7 kts 142°
2026-04-29 02:45 35.61925 -0.61127 303 ft 0 kts 142°
2026-04-29 02:45 35.61919 -0.61121 303 ft 0 kts 142°